Weather History for West Palm Beach, FL

Change the Weather History Date:

Saturday, September 14, 2013

  Actual Average Record
Temperature  
Mean Temperature 83 °F 82 °F  
Max Temperature 90 °F 89 °F 95 °F (1961)
Min Temperature 76 °F 75 °F 67 °F (1939)
Degree Days  
Heating Degree Days 0 0  
Month to date heating degree days 0 0  
Since 1 July heating degree days 0 0  
Cooling Degree Days 18 17  
Month to date cooling degree days 247 238  
Year to date cooling degree days 3118 2944  
Growing Degree Days 32 (Base 50)    
Moisture  
Dew Point 75 °F    
Average Humidity 75    
Maximum Humidity 94    
Minimum Humidity 56    
Precipitation  
Precipitation 0.00 in 0.29 in 2.85 in (1979)
Month to date precipitation 1.83 3.92  
Year to date precipitation 49.45 44.64  
Snow  
Snow 0.00 in - - ()
Month to date snowfall 0.0  
Since 1 July snowfall 0.0  
Since 1 September snowfall 0.0  
Snow Depth 0.00 in    
Sea Level Pressure  
Sea Level Pressure 29.90 in    
Wind  
Wind Speed 6 mph (SE)    
Max Wind Speed 15 mph    
Max Gust Speed 18 mph    
Visibility 10 miles    
Events      
T = Trace of Precipitation, MM = Missing Value Source: NWS Daily Summary

Daily Weather History Graph

Daily Weather History Graph

Search for Another Location

Airport:

Trip Planner

Search our weather history database for the weather conditions in past years. The results will help you decide how hot, cold, wet, or windy it might be!

Date:

Astronomy

Sep. 14, 2013 Rise Set
Actual Time 7:05 AM EDT 7:25 PM EDT
Civil Twilight 6:42 AM EDT 7:48 PM EDT
Nautical Twilight 6:15 AM EDT 8:15 PM EDT
Astronomical Twilight 5:47 AM EDT 8:43 PM EDT
Moon 3:45 PM EDT 1:58 AM EDT
Length of Visible Light 13h 06m
Length of Day
12h 19m
Waxing Gibbous, 72% of the Moon is Illuminated
Sep 14
Waxing Gibbous
Sep 19
Full
Sep 26
Last Quarter
Oct 4
New
Oct 11
First Quarter

Hourly Weather History & Observations

Time (EDT) Temp. Heat Index Dew Point Humidity Pressure Visibility Wind Dir Wind Speed Gust Speed Precip Events Conditions
12:53 AM 81.0 °F 86.7 °F 75.0 °F 82% 29.86 in 10.0 mi SSE 3.5 mph - N/A   Partly Cloudy
1:53 AM 80.1 °F 85.1 °F 75.0 °F 85% 29.85 in 10.0 mi Calm Calm - N/A   Partly Cloudy
2:53 AM 77.0 °F - 75.0 °F 94% 29.84 in 10.0 mi Calm Calm - N/A   Partly Cloudy
3:53 AM 78.1 °F - 75.0 °F 90% 29.83 in 10.0 mi Calm Calm - N/A   Partly Cloudy
4:53 AM 78.1 °F - 75.0 °F 90% 29.84 in 10.0 mi SSW 4.6 mph - N/A   Partly Cloudy
5:53 AM 77.0 °F - 75.0 °F 94% 29.85 in 10.0 mi Calm Calm - N/A   Scattered Clouds
6:53 AM 77.0 °F - 75.0 °F 94% 29.86 in 10.0 mi Calm Calm - N/A   Scattered Clouds
7:53 AM 78.1 °F - 75.9 °F 93% 29.88 in 10.0 mi WSW 3.5 mph - N/A   Scattered Clouds
8:53 AM 82.0 °F 90.2 °F 77.0 °F 85% 29.90 in 10.0 mi SW 3.5 mph - N/A   Scattered Clouds
9:53 AM 84.9 °F 93.3 °F 75.0 °F 72% 29.92 in 10.0 mi WSW 3.5 mph - N/A   Scattered Clouds
10:53 AM 86.0 °F 93.8 °F 73.9 °F 67% 29.92 in 10.0 mi Calm Calm - N/A   Scattered Clouds
11:53 AM 89.1 °F 98.0 °F 73.9 °F 61% 29.93 in 10.0 mi Variable 3.5 mph - N/A   Scattered Clouds
12:53 PM 89.1 °F 96.0 °F 72.0 °F 57% 29.92 in 10.0 mi East 5.8 mph - N/A   Scattered Clouds
1:53 PM 90.0 °F 96.9 °F 72.0 °F 55% 29.91 in 10.0 mi ESE 10.4 mph - N/A   Scattered Clouds
2:53 PM 89.1 °F 98.0 °F 73.9 °F 61% 29.89 in 10.0 mi ESE 11.5 mph - N/A   Scattered Clouds
3:53 PM 89.1 °F 98.0 °F 73.9 °F 61% 29.89 in 10.0 mi East 15.0 mph - N/A   Scattered Clouds
4:53 PM 88.0 °F 97.5 °F 75.0 °F 65% 29.90 in 10.0 mi ESE 12.7 mph - N/A   Scattered Clouds
5:53 PM 86.0 °F 95.1 °F 75.0 °F 70% 29.92 in 10.0 mi East 10.4 mph - N/A   Mostly Cloudy
6:53 PM 84.9 °F 92.1 °F 73.9 °F 69% 29.90 in 10.0 mi ESE 12.7 mph - N/A   Mostly Cloudy
7:53 PM 84.9 °F 92.1 °F 73.9 °F 69% 29.92 in 10.0 mi East 9.2 mph - N/A   Mostly Cloudy
8:53 PM 84.0 °F 91.9 °F 75.0 °F 74% 29.94 in 10.0 mi East 11.5 mph - N/A   Mostly Cloudy
9:53 PM 84.0 °F 91.9 °F 75.0 °F 74% 29.96 in 10.0 mi East 12.7 mph - N/A   Mostly Cloudy
10:53 PM 84.0 °F 91.9 °F 75.0 °F 74% 29.97 in 10.0 mi East 9.2 mph - N/A   Mostly Cloudy
11:53 PM 83.3 °F 90.2 °F 74.3 °F 74% 29.97 in 10.0 mi East 6.9 mph - N/A   Scattered Clouds